|
ATLAS 5 CENTAUR R/B - Orbit
|
ActonStarParty;
08:42:19
| Home | Info | Passes |
|
View from above orbital plane
|
View from above satellite
|
Ground track
|
The orbit data is extracted from the following two-line orbital elements,
1 32379U 07060B 13096.73946036 0.00007500 00000-0 11699-2 0 07
2 32379 60.8131 332.7110 5284536 133.3607 284.7863 5.16117899 03
| Epoch (UTC): | 06 April 2013 17:44:49 |
| Eccentricity: | 0.5284536 |
| inclination: | 60.8131° |
| perigee height: | 291 km |
| apogee height: | 15240 km |
| right ascension of ascending node: | 332.7110° |
| argument of perigee: | 133.3607° |
| revolutions per day: | 5.16117899 |
| mean anomaly at epoch: | 284.7863° |
| orbit number at epoch: | 0 |
The dashed part of the orbit path shows where the satellite is in the earth's shadow,
|
|